Tracking 23764 objects as of 17-Oct-2021
HD Live streaming from Space Station
objects crossing your sky now

IRIDIUM 33 DEB

Track IRIDIUM 33 DEB now!
10-day predictions


NORAD ID: 46977
Int'l Code: 1997-051ACK
Perigee: 711.9 km
Apogee: 773.7 km
Inclination: 86.2 °
Period: 99.5 minutes
Semi major axis: 7113 km
RCS: Unknown
Launch date: September 14, 1997
Source: United States (US)
Launch site: TYURATAM MISSILE AND SPACE COMPLEX (TTMTR)

Note: This is SATELLITE DEBRIS
aabbcc
Your satellite tracking list
Your tracking list is empty




NASA's NSSDC Master Catalog

Two Line Element Set (TLE):
1 46977U 97051ACK 21289.07965804  .00003473  00000-0  93958-3 0  9990
2 46977  86.1770 219.9464 0043461 104.5357 256.0672 14.46942832368886
Source of the keplerian elements: AFSPC